Location: Kopernik Observatory
(42.0014°N, 76.0372°W)
Time: 03:03:54
(UTC-04:00)

Daily predictions for brighter satellites

Satellite Brightness Start Highest point End
(mag) Time Altitude Azimuth Time Altitude Azimuth Time Altitude Azimuth
H-2A R/B 4.5 00:12:14 21° N 00:12:14 21° N 00:13:50 10° N
Lacrosse 5 3.7 00:10:55 10° NW 00:13:25 28° NNW 00:13:25 28° NNW
CZ-2C R/B 4.0 00:13:17 10° N 00:16:47 37° NNW 00:16:47 37° NNW
CZ-4C R/B 3.5 00:26:51 38° N 00:26:51 38° N 00:31:16 10° NNE
ATLAS 5 CENTAUR R/B 3.4 00:27:26 10° NW 00:31:12 42° NNW 00:31:12 42° NNW
ADEOS Rocket 3.7 01:08:38 10° NNE 01:14:09 57° N 01:14:09 57° N
Cosmos 1943 Rocket 4.3 01:12:04 10° NW 01:13:38 18° NW 01:13:38 18° NW
Mayak 1.7 01:13:50 10° N 01:14:37 14° NNW 01:14:37 14° NNW
SL-16 R/B 4.3 01:49:33 22° E 01:51:28 25° ENE 01:56:26 10° N
Cosmos 2082 Rocket 4.4 01:53:11 15° E 01:53:11 15° E 01:55:14 10° ENE
Lacrosse 4 Rocket 4.4 01:53:57 10° NNE 01:55:59 13° NE 01:57:21 11° ENE
Gbstr 26 Del rocket 4.3 02:26:21 81° ENE 02:26:21 81° ENE 02:33:10 10° NE
Nadezhda 4 Rocket 4.4 02:20:39 10° N 02:26:27 54° ENE 02:26:27 54° ENE
Cosmos 2369 4.5 02:21:13 10° NNW 02:26:19 47° NE 02:26:19 47° NE
Cosmos 1833 Rocket 3.8 02:32:35 36° E 02:32:35 36° E 02:36:50 10° NE
Resurs 1-4 Rocket 3.4 02:27:59 10° NNE 02:32:02 33° E 02:32:02 33° E
Lacrosse 5 rocket 3.8 02:45:56 19° ENE 02:45:56 19° ENE 02:47:19 10° ENE
Cosmos 909 Rocket 4.1 02:46:36 10° NNW 02:52:54 74° ENE 02:54:00 61° ESE
Meteor 1-23 Rocket 4.4 02:54:57 69° ENE 02:54:57 69° ENE 03:00:12 10° NNE
H-2A R/B 4.1 02:50:26 10° NNE 02:52:52 34° NNE 02:52:52 34° NNE
Cosmos 371 Rocket 4.2 02:57:27 48° NE 02:57:27 48° NE 03:01:01 10° NNE
Meteor 2-4 Rocket 4.2 03:01:30 49° NNW 03:01:30 49° NNW 03:05:38 10° N
Exosat Rocket 4.2 02:57:44 10° NNW 03:03:38 79° ENE 03:06:37 40° SSE
CBERS-1 4.3 03:05:04 10° NNE 03:09:22 63° N 03:09:22 63° N
Cosmos 1025 Rocket 4.0 03:16:11 45° NE 03:16:11 45° NE 03:19:23 10° NNE
Cosmos 2034 Rocket 4.4 03:17:52 48° WNW 03:17:52 48° WNW 03:23:34 10° N
Cosmos 2278 4.0 03:14:14 10° NNW 03:18:44 56° NW 03:18:44 56° NW
USA 215 4.3 03:19:34 10° ENE 03:25:19 32° SE 03:26:55 29° SSE
IRS P6 4.5 03:20:51 10° NNE 03:26:00 82° NW 03:26:00 82° NW
Cosmos 1980 Rocket 2.8 03:21:53 10° NNW 03:27:24 54° ENE 03:32:53 10° SE
Cosmos 1570 Rocket 4.3 03:27:42 57° SE 03:28:07 59° ESE 03:33:21 10° NNE
CZ-2D R/B 2.0 03:24:37 10° N 03:30:01 75° WNW 03:30:01 75° WNW
Cosmos 1607 4.0 03:29:40 61° W 03:30:31 68° NW 03:37:01 10° NNE
Cosmos 1697 Rocket 2.5 03:25:08 10° NNW 03:30:50 84° WSW 03:31:12 78° S
Cosmos 2142 Rocket 4.5 03:29:47 55° SSE 03:31:11 77° E 03:37:20 10° N
Cosmos 1092 Rocket 3.9 03:26:00 10° NNW 03:32:11 69° W 03:32:43 66° SW
SL-16 R/B 2.6 03:34:38 57° WSW 03:34:39 57° W 03:40:50 10° NNW
UNKNOWN OBJECT B 4.0 03:31:24 10° NNE 03:34:51 36° E 03:34:51 36° E
Cosmos 2082 Rocket 2.1 03:35:02 69° W 03:35:19 70° WNW 03:40:58 10° NNE
Lacrosse 4 Rocket 2.6 03:30:52 10° NNW 03:33:35 37° NNW 03:33:35 37° NNW
Cosmos 304 Rocket 4.0 03:35:16 59° ESE 03:35:29 60° ESE 03:40:16 10° NNE
SL-16 R/B 4.4 03:32:36 10° N 03:37:11 24° NE 03:41:45 10° ESE
Cosmos 1867 3.4 03:32:02 10° NW 03:37:32 78° WSW 03:37:36 78° SW
Cosmos 1340 Rocket 4.4 03:40:35 26° NNW 03:40:35 26° NNW 03:42:40 10° N
Spot 4 Rocket 3.9 03:34:03 10° NNE 03:39:15 90° ESE 03:39:40 76° SSW
MOZ.5/SAFIR/RUBIN 5/SL-8 3.9 03:40:15 66° NW 03:40:15 66° NW 03:44:27 10° NNW
ARIANE 5 R/B 2.4 03:37:46 10° NNE 03:43:02 87° WNW 03:43:38 71° SSW
Iridium 4 Rocket 3.8 03:47:03 41° NW 03:47:03 41° NW 03:50:17 10° N
IRS-1C 4.3 03:42:11 10° N 03:47:22 52° WNW 03:47:36 51° W
Cosmos 468 Rocket 4.4 03:47:44 45° SSE 03:49:06 61° ESE 03:54:21 10° NNE
BREEZE-M R/B 4.0 03:51:25 32° ESE 03:51:25 32° ESE 03:55:17 10° ENE
BREEZE-M DEB (TANK) 4.4 03:32:23 10° WNW 03:53:25 73° NNE 03:58:01 10° ESE
Cosmos 2322 Rocket 4.1 03:49:24 10° N 03:54:22 30° NE 03:59:17 10° ESE
Cosmos 1428 Rocket 4.4 03:48:35 10° N 03:54:49 86° E 03:58:27 26° S
Cosmos 1627 Rocket 4.5 03:52:13 10° NNW 03:58:31 63° W 04:00:25 44° SSW
ADEOS II 2.8 03:56:27 10° NNE 04:01:32 48° E 04:04:45 22° SSE
Cosmos 1726 Rocket 3.6 03:58:01 10° N 04:02:21 74° E 04:03:44 42° SSE
Cosmos 1842 4.4 04:01:07 29° SE 04:02:33 40° E 04:06:16 10° NNE
Okean 1-7 Rocket 3.5 04:03:00 67° WSW 04:03:13 69° W 04:07:44 10° N
IRS-1D 4.0 04:00:23 10° N 04:05:12 42° WNW 04:05:48 40° W
Cosmos 1356 Rocket 3.2 04:05:50 71° WNW 04:05:50 71° WNW 04:09:47 10° N
CZ-2D R/B 3.3 04:03:44 10° NNE 04:07:49 86° WNW 04:08:19 68° SSW
ADEOS 3.5 04:02:47 10° NNE 04:08:02 89° WNW 04:09:55 41° SSW
Cosmos 1544 3.6 04:07:50 10° NNW 04:10:42 47° NW 04:10:42 47° NW
Resurs 1-4 Rocket 3.0 04:07:57 10° N 04:12:30 31° WNW 04:13:07 30° W
Cosmos 1833 Rocket 3.7 04:14:17 28° W 04:15:36 32° NW 04:20:38 10° N
Cosmos 2058 Rocket 3.1 04:13:47 10° N 04:18:13 78° E 04:21:28 18° SSE
Helios 1A Rocket 3.2 04:14:32 10° N 04:18:34 48° WNW 04:18:54 46° W
Cosmos 1805 3.6 04:15:10 10° N 04:19:02 63° E 04:21:47 18° SSE
Cosmos 2180 Rocket 4.5 04:18:07 28° SSW 04:21:42 77° W 04:28:08 10° N
Lacrosse 5 rocket 2.5 04:21:36 29° WNW 04:22:38 33° NW 04:26:23 10° NNE
Cosmos 1766 3.1 04:19:14 10° NNW 04:23:06 74° W 04:24:03 48° SSW
Cosmos 44 4.3 04:18:02 10° NNW 04:23:08 54° NE 04:28:24 10° SE
Cosmos 841 Rocket 3.9 04:25:09 20° S 04:28:41 59° ESE 04:33:48 10° NNE
Cosmos 1606 Rocket 3.8 04:25:33 10° NNW 04:29:38 43° W 04:30:10 41° WSW
Cosmos 2360 4.4 04:25:22 10° NW 04:30:48 48° WSW 04:36:13 10° S
Cosmos 1758 4.3 04:27:37 10° N 04:31:28 46° ENE 04:35:18 10° SSE
Cosmos 2228 2.9 04:30:59 10° NNW 04:35:13 62° W 04:37:29 26° SSW
Cosmos 2279 Rocket 4.3 04:32:48 29° SW 04:35:45 48° WNW 04:41:49 10° N
Cosmos 1626 Rocket 4.2 04:32:17 11° S 04:36:16 53° E 04:40:30 10° NNE
Cosmos 1892 Rocket 4.0 04:40:00 33° SW 04:41:25 44° WNW 04:45:40 10° N
Cosmos 44 Rocket 4.2 04:38:06 10° NNW 04:43:09 54° NE 04:48:13 10° SE
SJ 16-02 3.1 04:41:45 10° N 04:45:48 34° ENE 04:49:50 10° SE
CZ-4B R/B 3.9 04:46:11 10° NNE 04:50:19 46° E 04:54:13 10° S
Meteor 1-21 4.3 04:47:14 18° SSW 04:51:26 63° WNW 04:57:02 10° N
Cosmos 540 Rocket 4.1 04:47:30 10° S 04:52:29 54° ESE 04:57:30 10° NNE
COSMOS 2487 4.3 04:52:33 16° WNW 04:52:51 16° WNW 04:55:08 10° NNW
ATLAS 3B R/B 2.9 04:47:02 16° SSW 04:52:57 79° ESE 04:59:54 10° NE
NOSS 3-2 (A) 4.0 04:50:07 11° SSW 04:55:32 55° ESE 05:01:48 10° NE
Cosmos 1763 Rocket 3.7 04:53:31 21° SW 04:56:52 55° WNW 05:02:06 10° NNE
Timation 2 Rocket 3.9 04:52:47 19° SW 04:57:17 72° WNW 05:03:17 10° NNE
Cosmos 1898 Rocket 4.3 04:59:21 10° NW 05:03:49 29° W 05:08:16 10° SSW
Cosmos 1733 3.1 05:00:31 10° N 05:04:24 84° W 05:08:16 10° S
USA 215 3.3 05:02:07 10° NE 05:08:39 73° NW 05:14:17 14° WSW
Cosmos 2360 Rocket 3.2 05:03:26 10° NNW 05:08:54 50° ENE 05:14:20 10° SE
CZ-2D R/B 4.2 05:07:50 10° NW 05:09:07 11° NW 05:10:23 10° WNW
MOS 1-B 4.4 05:03:24 10° NNE 05:09:15 84° ESE 05:15:04 10° SSW
Cosmos 1980 Rocket 3.3 05:06:49 10° NW 05:10:57 21° W 05:15:05 10° SSW
USA 161 3.2 05:09:34 10° SE 05:12:26 39° ENE 05:15:16 10° N
Okean O Rocket 2.6 05:08:21 10° NNE 05:12:35 47° E 05:16:46 10° S
ATLAS CENTAUR R/B 3.7 05:10:53 10° NNW 05:14:46 31° NE 05:18:51 10° ESE
Cosmos 1125 Rocket 4.0 05:11:34 10° NNW 05:16:52 65° ENE 05:22:07 10° SSE
Cosmos 1937 Rocket 4.2 05:12:46 10° NW 05:17:17 31° W 05:21:45 10° SSW
Cosmos 1470 2.7 05:15:10 10° NNW 05:19:09 75° W 05:23:06 10° S
Cosmos 2266 Rocket 4.2 05:14:17 10° NNW 05:20:02 45° W 05:25:49 10° SSW
Cosmos 2082 Rocket 4.2 05:18:04 10° WNW 05:20:29 13° NW 05:22:55 10° NNW
SL-16 R/B 2.3 05:16:06 10° NNW 05:21:37 54° WSW 05:27:07 10° S
Cosmos 1825 Rocket 4.2 05:21:53 10° S 05:26:06 57° E 05:30:20 10° NNE
DNEPR-1 R/B 3.5 05:29:45 10° SW 05:33:56 75° NW 05:38:32 10° NNE
Cosmos 2322 Rocket 2.6 05:33:15 10° NW 05:38:30 41° WSW 05:43:42 10° S
Aureole 2 Rocket 2.6 05:35:26 10° NNW 05:39:19 87° WSW 05:42:55 10° SSE
ADEOS II 3.4 05:36:54 10° NNW 05:40:55 23° WNW 05:44:55 10° WSW
Cosmos 292 Rocket 4.4 05:36:41 10° SW 05:41:10 38° WNW 05:45:41 10° N
Cosmos 1707 2.9 05:38:12 10° SSW 05:41:58 52° W 05:45:47 10° N
Cosmos 1833 4.3 05:36:35 10° SSW 05:42:24 86° WNW 05:48:14 10° NNE
USA 267 3.6 05:36:36 10° ESE 05:43:07 74° NE 05:49:39 10° NW
Cosmos 1953 3.1 05:39:39 10° NNW 05:43:17 31° W 05:46:52 10° SSW
PAYLOAD B 4.3 05:37:39 10° NNE 05:43:18 84° WNW 05:48:54 10° SSW
PSLV R/B 4.4 05:43:52 10° N 05:47:28 37° WNW 05:50:59 10° SW
CZ-4B R/B 3.7 05:43:42 10° N 05:47:29 83° WNW 05:51:24 10° SSW
Cosmos 372 Rocket 4.0 05:45:14 10° NNW 05:50:23 60° WSW 05:55:27 10° S
Cosmos 1953 Rocket 3.9 05:46:16 10° S 05:50:44 76° E 05:55:12 10° N
Meteor 1-31 Rocket 2.8 05:47:06 10° N 05:50:59 70° WNW 05:54:48 10° SSW
USA 238 DEB 4.3 05:44:36 10° WSW 05:51:08 45° NW 05:57:48 10° NNE
USA 238 4.3 05:44:41 10° WSW 05:51:14 45° NW 05:57:55 10° NNE
